#timestamp,LO_Frequency,Hit,StdDev 
1595167215.3,286047001.0,N
1595167235.1,286047000.3,N
1595167255.9,286046998.6,N
1595167275.7,286046998.2,N
1595167295.5,286046999.0,N
1595167315.4,286046998.3,N
1595167335.2,286046998.1,N
1595167355.0,286047000.4,N
1595167355.9,286047000.4,N
1595167375.8,286047001.2,N
1595167395.6,286046998.6,N
1595167415.5,286047001.1,N
1595167435.3,286046998.8,N
1595167455.1,286047000.3,N
1595167475.9,286047002.2,N
1595167495.7,286047000.1,N
1595167515.6,286047002.0,N
1595167535.4,286047001.3,N
1595167555.2,286047001.5,N
1595167575.1,286047001.4,N
1595167576.0,286047001.4,N
1595167595.8,286047004.3,N
1595167615.6,286047003.6,N
1595167635.5,286047004.3,N
1595167655.3,286047003.7,N
1595167675.2,286047001.8,N
1595167695.9,286047001.8,N
1595167715.7,286047004.0,N
1595167735.6,286047001.4,N
1595167755.4,286047002.0,N
1595167775.3,286047000.6,N
1595167795.1,286047002.6,N
1595167796.0,286047002.6,N
1595167815.8,286047004.0,N
1595167835.7,286047003.7,N
1595167855.5,286047003.4,N
1595167875.3,286047001.8,N
1595167895.2,286047003.5,N
1595167915.0,286047005.4,Y
1595167915.9,286047005.4,P
1595167935.8,286047003.3,N
1595167955.6,286047003.6,N
1595168005.5,286047003.9,E
1595168015.4,286047002.8,N
1595168035.2,286047000.6,P
1595168055.1,286046998.9,N
1595168056.0,286046998.9,N
1595168075.8,286047001.2,N
1595168095.6,286046998.5,N
1595168115.5,286046998.2,N
1595168135.3,286047000.8,N
1595168155.2,286047000.2,N
1595168175.9,286047002.7,N
1595168195.7,286047002.3,N
1595168215.6,286047001.9,N
1595168235.4,286047004.3,N
1595168255.2,286047004.4,N
1595168275.1,286047003.6,N
1595168276.0,286047003.6,N
1595168295.8,286047001.9,N
1595168315.7,286047003.8,N
1595168335.5,286047004.2,N
1595168355.3,286047004.2,N
1595168375.2,286047003.8,N
1595168395.0,286047001.3,N
1595168395.9,286047001.3,N
1595168415.7,286047001.5,N
1595168435.6,286047001.9,N
1595168455.4,286047001.4,N
1595168475.3,286047004.3,N
1595168495.1,286047001.7,N
1595168515.8,286047001.8,N
1595168535.7,286047002.2,N
1595168555.5,286047002.6,N
1595168575.4,286047002.6,N
1595168595.2,286047002.0,N
1595168615.0,286047001.5,N
1595168615.9,286047001.5,N
1595168635.8,286047002.1,N
1595168655.6,286047000.2,N
1595168675.4,286046999.8,N
1595168695.3,286047000.5,N
1595168715.1,286047004.0,Y
1595168735.9,286047000.0,P
1595168755.7,286046998.5,N
1595168775.5,286046998.5,N
1595168795.4,286047000.3,N
1595168815.2,286047000.9,N
1595168835.0,286047000.6,N
1595168835.9,286047000.6,N
1595168855.8,286047002.3,N
1595168875.6,286046998.2,N
1595168895.5,286047000.3,N
1595168915.3,286047001.6,N
1595168935.1,286047002.5,N
1595168955.9,286047002.6,N
1595168975.7,286047001.7,N
1595168995.6,286047004.2,N
1595169015.4,286047001.7,N
1595169035.2,286047004.2,N
1595169055.1,286047002.6,N
1595169056.0,286047002.6,N
1595169075.8,286047001.9,N
1595169095.6,286047002.0,N
1595169115.5,286047001.7,N
1595169135.3,286047003.8,N
1595169155.2,286047003.9,N
1595169175.9,286047002.9,N
1595169195.7,286047004.3,N
1595169215.6,286047004.2,N
1595169235.4,286047006.0,Y
1595169255.2,286047000.7,P
1595169275.1,286047001.2,N
1595169276.0,286047001.2,N
1595169295.8,286046998.5,Y
1595169315.7,286046999.3,P
1595169335.5,286046999.1,N
1595169355.3,286046998.1,N
1595169375.2,286047000.5,N
1595169395.0,286047000.6,N
1595169395.9,286047000.6,N
1595169415.8,286047000.2,N
1595169435.6,286047001.0,N
1595169455.4,286047000.5,N
1595169475.3,286047002.3,N
1595169495.1,286047000.8,N
1595169515.9,286047000.5,N
1595169535.7,286046999.7,N
1595169555.5,286047000.1,N
1595169575.4,286047000.1,N
1595169595.2,286047002.7,N
1595169615.0,286047002.7,N
1595169615.9,286047002.7,N
1595169635.8,286047002.3,N
1595169655.6,286047001.5,N
1595169675.5,286047000.2,N
1595169695.3,286047000.8,N
1595169715.1,286047000.3,N
1595169735.9,286047002.8,N
1595169755.7,286047002.4,N
1595169775.5,286047001.8,N
1595169795.4,286047003.7,Y
1595169815.2,286047002.4,P
1595169835.1,286047001.5,N
1595169836.0,286047001.5,N
1595169855.8,286047001.9,Y
1595169875.6,286047000.9,P
1595169895.5,286047001.0,N
1595169915.3,286046999.3,N
1595169935.2,286046999.5,N
1595169955.9,286046998.4,N
1595169975.7,286047001.1,N
1595169995.6,286046999.3,N
1595170015.4,286046999.5,N
1595170035.2,286046998.4,N
1595170055.1,286046998.1,N
1595170056.0,286046998.1,N
1595170075.8,286046999.8,N
1595170095.7,286046999.8,N
1595170115.5,286046999.8,N
1595170135.3,286047002.6,N
1595170155.2,286046999.9,N
1595170175.0,286046999.7,N
1595170175.9,286046999.7,N
1595170195.7,286047002.4,N
1595170215.6,286047004.3,Y
1595170235.4,286047001.6,P
1595170255.3,286047002.6,P
1595170275.1,286047002.2,N
1595170295.8,286047002.0,N
1595170315.7,286047002.5,N
1595170335.5,286047002.4,N
1595170355.4,286047002.8,Y
1595170375.2,286046999.5,P
1595170395.0,286046996.6,N
1595170395.9,286046996.6,N
1595170415.8,286046997.2,N
1595170435.6,286046999.0,N
1595170455.4,286047000.6,N
1595170475.3,286046999.0,N
1595170495.1,286046998.6,N
1595170515.9,286047000.5,N
1595170535.7,286046998.1,N
1595170555.5,286047000.3,N
1595170575.4,286047000.5,N
1595170595.2,286046999.8,N
1595170615.1,286046998.2,N
1595170616.0,286046998.2,N
1595170635.8,286047000.6,N
1595170655.6,286047002.1,N
1595170675.5,286046999.9,N
1595170695.3,286047000.1,N
1595170715.1,286047004.2,N
1595170735.9,286047003.9,N
1595170755.7,286047004.1,N
1595170775.6,286047004.0,N
1595170795.4,286047003.7,N
